GW3170 Weather Reports


time (UTC)temp
F
wind
direction
speed
knots
gust
knots
rain 1hr
in
rain 24hr
in
rain mn
in
humidity
%
barometer
mb
20260507030555 43 320 0.9 4.3 0.00 0.67 0.58 88 1011.8
20260507025558 44 300 0.9 2.6 0.00 0.77 0.58 88 1011.5
20260507025054 44 305 0.0 3.5 0.00 0.77 0.58 89 1011.5
20260507024608 44 328 0.9 3.5 0.00 0.77 0.58 89 1011.6
20260507024104 44 327 0.9 2.6 0.00 0.77 0.58 89 1011.5
20260507023557 44 317 0.0 1.7 0.00 0.77 0.58 89 1011.5
20260507023109 44 0 0.9 1.7 0.00 0.77 0.58 89 1011.5
20260507022554 44 329 0.0 1.7 0.00 0.77 0.58 90 1011.7
20260507022054 44 307 0.0 2.6 0.00 0.77 0.58 90 1011.8
20260507021611 45 307 0.0 2.6 0.00 0.77 0.58 90 1011.8
20260507021054 45 0 0.0 0.0 0.00 0.77 0.58 89 1011.6
20260507020557 45 0 0.0 0.0 0.00 0.77 0.58 89 1011.6
20260507015557 45 0 0.0 0.9 0.00 0.92 0.58 89 1011.5
20260507015055 45 0 0.0 0.9 0.00 0.92 0.58 89 1011.7
20260507014600 45 277 0.0 0.9 0.00 0.92 0.58 89 1011.8
20260507014055 45 0 0.0 0.0 0.00 0.92 0.58 89 1011.7
20260507013554 45 0 0.0 0.0 0.00 0.92 0.58 89 1011.6
20260507013057 45 0 0.0 0.0 0.00 0.92 0.58 89 1011.5
20260507012559 45 0 0.0 0.0 0.00 0.92 0.58 90 1011.7
20260507012054 45 0 0.0 0.0 0.00 0.92 0.58 90 1011.6
20260507011559 44 0 0.0 0.0 0.00 0.92 0.58 89 1011.4
20260507011054 44 0 0.0 0.0 0.00 0.92 0.58 89 1011.3
20260507010554 44 0 0.0 0.0 0.00 0.92 0.58 89 1011.2
20260507010053 45 0 0.0 0.0 0.00 0.92 0.58 88 1011.2
20260507005554 45 0 0.0 0.0 0.00 1.02 0.58 88 1011.1
20260507005054 45 0 0.0 0.0 0.00 1.02 0.58 88 1010.8
20260507004554 45 0 0.0 0.0 0.00 1.02 0.58 88 1011.1
20260507004054 45 0 0.0 0.0 0.00 1.02 0.58 87 1011.1
20260507003555 45 0 0.0 0.0 0.00 1.02 0.58 87 1010.9
20260507003055 45 0 0.0 0.0 0.00 1.02 0.58 87 1010.8
20260507002555 45 0 0.0 0.0 0.00 1.02 0.58 87 1010.9
20260507002057 45 0 0.0 0.0 0.00 1.02 0.58 86 1010.8
20260507001603 45 0 0.0 0.0 0.00 1.02 0.58 86 1010.8
20260507001056 45 0 0.0 0.0 0.00 1.02 0.58 86 1010.9
20260507000557 45 0 0.0 0.9 0.00 1.02 0.58 86 1010.8
20260507000058 45 0 0.0 0.9 0.00 1.02 0.58 86 1010.7
20260506235557 45 272 0.0 1.7 0.00 1.03 0.58 86 1010.7
20260506235054 45 0 0.0 1.7 0.00 1.03 0.58 86 1010.6
20260506234624 45 257 0.0 1.7 0.00 1.03 0.58 85 1010.6
20260506234054 45 281 0.0 1.7 0.00 1.03 0.58 85 1010.6
20260506233554 45 0 0.0 1.7 0.00 1.03 0.58 85 1010.4
20260506233055 45 0 0.9 2.6 0.00 1.03 0.58 85 1010.3
20260506232559 45 288 0.0 3.5 0.00 1.03 0.58 85 1010.4
20260506232056 45 305 1.7 3.5 0.00 1.03 0.58 84 1010.4
20260506231556 45 280 0.0 1.7 0.00 1.03 0.58 85 1010.1
20260506231059 45 0 0.0 3.5 0.00 1.03 0.58 85 1009.9
20260506230600 45 281 0.9 3.5 0.00 1.03 0.58 85 1010.1
20260506230059 45 289 1.7 3.5 0.00 1.03 0.58 85 1010.2
20260506225600 45 290 0.0 1.7 0.00 1.03 0.58 85 1010.1
20260506225055 45 0 0.0 0.0 0.00 1.03 0.58 85 1009.7
20260506224556 45 0 0.0 0.0 0.00 1.03 0.58 84 1009.8
20260506224054 45 0 0.0 0.0 0.00 1.03 0.58 84 1009.8
20260506223600 45 0 0.0 1.7 0.00 1.03 0.58 85 1009.9
20260506223101 45 0 0.0 1.7 0.00 1.03 0.58 84 1009.9
20260506222557 45 294 0.0 1.7 0.00 1.03 0.58 84 1010.1
20260506222057 45 0 0.0 0.9 0.00 1.03 0.58 84 1010.2
20260506221556 45 0 0.0 1.7 0.00 1.03 0.58 83 1010.2
20260506221056 45 0 0.0 1.7 0.00 1.03 0.58 83 1010.2
20260506220556 45 304 0.0 1.7 0.00 1.03 0.58 83 1010.2
20260506220055 46 0 0.0 3.5 0.00 1.03 0.58 84 1010.0
20260506215557 46 299 0.9 4.3 0.00 1.03 0.58 84 1010.1
20260506215101 46 294 0.9 4.3 0.00 1.03 0.58 83 1010.1
20260506214557 46 289 1.7 4.3 0.00 1.03 0.58 83 1010.1
20260506214057 46 293 0.9 4.3 0.00 1.03 0.58 84 1010.1
20260506213557 46 0 0.9 4.3 0.00 1.03 0.58 85 1010.0
20260506213058 46 307 0.9 2.6 0.00 1.03 0.58 84 1010.0
20260506212557 46 349 0.9 5.2 0.00 1.03 0.58 84 1009.9
20260506212055 46 296 0.0 5.2 0.00 1.03 0.58 85 1009.8
20260506211554 46 299 0.9 5.2 0.00 1.03 0.58 84 1009.8
20260506211057 46 329 1.7 5.2 0.00 1.03 0.58 86 1009.8
20260506210554 46 276 3.5 5.2 0.00 1.03 0.58 85 1009.8
20260506210057 46 285 0.9 4.3 0.00 1.03 0.58 86 1009.9
20260506205559 46 304 0.9 6.1 0.00 1.03 0.58 86 1009.9
20260506205056 46 311 1.7 6.1 0.00 1.03 0.58 86 1009.9
20260506204600 46 323 0.9 3.5 0.00 1.03 0.58 87 1009.7
20260506204056 46 0 0.9 3.5 0.00 1.03 0.58 87 1009.6
20260506203556 46 276 0.9 2.6 0.00 1.03 0.58 88 1009.6
20260506203056 46 318 0.0 2.6 0.00 1.03 0.58 88 1009.4
20260506202600 46 347 0.9 2.6 0.00 1.03 0.58 88 1009.5
20260506202059 46 307 1.7 3.5 0.00 1.03 0.58 87 1009.3
20260506201558 46 8 0.0 3.5 0.00 1.03 0.58 89 1009.3
20260506201057 46 344 0.9 1.7 0.00 1.03 0.58 89 1009.2
20260506200601 45 331 0.0 1.7 0.00 1.03 0.58 90 1009.3
20260506200109 45 349 0.9 5.2 0.00 1.03 0.58 90 1009.3
20260506195600 45 0 1.7 5.2 0.00 1.03 0.58 89 1009.3
20260506195057 45 318 0.0 3.5 0.01 1.03 0.58 91 1009.4
20260506194623 45 0 1.7 3.5 0.01 1.03 0.58 90 1009.4
20260506194056 45 340 0.9 3.5 0.01 1.03 0.58 91 1009.5
20260506193600 45 335 0.9 3.5 0.01 1.03 0.58 91 1009.5
20260506193055 45 349 1.7 4.3 0.01 1.03 0.58 91 1009.5
20260506192557 45 295 1.7 4.3 0.01 1.03 0.58 91 1009.5
20260506192057 45 347 0.9 4.3 0.01 1.03 0.58 92 1009.5
20260506191556 45 333 1.7 3.5 0.01 1.03 0.58 92 1009.4
20260506191057 45 7 0.0 2.6 0.01 1.03 0.58 92 1009.3
20260506190555 45 326 0.9 3.5 0.01 1.03 0.58 92 1009.2
20260506190055 45 283 1.7 3.5 0.01 1.03 0.58 92 1009.1
20260506185557 45 329 1.7 3.5 0.01 1.03 0.58 91 1009.1
20260506185100 45 335 0.0 6.1 0.00 1.02 0.58 92 1009.0
20260506184604 45 331 0.9 6.1 0.00 1.02 0.58 92 1009.1
20260506184057 45 335 0.9 4.3 0.00 1.02 0.58 92 1009.2
20260506183601 45 321 0.9 2.6 0.00 1.02 0.58 92 1009.1
20260506183105 45 345 0.9 2.6 0.00 1.02 0.58 92 1009.2
20260506182556 45 344 0.0 1.7 0.00 1.02 0.58 92 1009.2
20260506182056 45 0 0.0 1.7 0.00 1.02 0.58 93 1009.0
20260506181601 45 0 0.0 3.5 0.00 1.02 0.58 93 1008.9
20260506181055 45 352 0.0 3.5 0.00 1.02 0.58 93 1008.9
20260506180557 45 340 0.0 3.5 0.00 1.02 0.58 93 1008.8
20260506180057 45 0 0.0 3.5 0.00 1.02 0.58 92 1008.5
20260506175557 45 330 0.0 3.5 0.00 1.03 0.58 93 1008.6
20260506175056 45 350 0.9 3.5 0.00 1.03 0.58 93 1008.5
20260506174602 45 322 0.9 3.5 0.00 1.03 0.58 93 1008.3
20260506174058 45 318 0.0 1.7 0.00 1.03 0.58 93 1008.2
20260506173558 45 352 0.0 2.6 0.00 1.03 0.58 93 1008.2
20260506173112 45 354 0.9 3.5 0.00 1.03 0.58 93 1008.3
20260506172600 45 0 0.9 3.5 0.00 1.03 0.58 93 1008.4
20260506172056 45 335 0.9 3.5 0.00 1.03 0.58 93 1008.5
20260506171600 45 1 0.0 3.5 0.00 1.03 0.58 93 1008.4
20260506171057 45 350 0.9 3.5 0.00 1.03 0.58 93 1008.3
20260506170600 45 349 0.9 3.5 0.00 1.03 0.58 93 1008.3
20260506170101 45 0 0.9 3.5 0.00 1.03 0.58 93 1008.2
20260506165557 45 326 0.0 3.5 0.00 1.03 0.58 93 1008.1
20260506165057 45 0 1.7 3.5 0.00 1.03 0.58 93 1008.1
20260506164558 45 0 0.9 2.6 0.00 1.03 0.58 93 1008.0
20260506164056 45 341 0.9 2.6 0.00 1.03 0.58 93 1008.0
20260506163556 45 0 0.0 2.6 0.00 1.03 0.58 93 1008.0
20260506163059 45 342 0.9 3.5 0.00 1.03 0.58 93 1008.1
20260506162554 45 345 0.0 3.5 0.00 1.03 0.58 93 1008.1
20260506162101 45 326 0.9 1.7 0.00 1.03 0.58 93 1008.1
20260506161605 45 0 0.0 1.7 0.00 1.03 0.58 94 1008.2
20260506161057 45 339 0.0 1.7 0.00 1.03 0.58 94 1008.2
20260506160557 45 0 0.0 2.6 0.00 1.03 0.58 94 1008.2
20260506160058 45 0 0.0 2.6 0.00 1.03 0.58 94 1008.3
20260506155558 45 352 0.0 1.7 0.00 1.03 0.58 93 1008.4
20260506155147 45 0 0.0 0.9 0.00 1.03 0.58 93 1008.4
20260506154557 45 339 0.0 1.7 0.00 1.03 0.58 94 1008.4
20260506154057 44 0 0.0 2.6 0.00 1.03 0.58 93 1008.4
20260506153557 44 0 0.0 2.6 0.00 1.03 0.58 93 1008.6
20260506153058 45 359 0.0 1.7 0.00 1.03 0.58 94 1008.6
20260506152557 44 0 0.0 0.9 0.00 1.03 0.58 94 1008.5
20260506152054 44 339 0.0 0.9 0.00 1.03 0.58 93 1008.5
20260506151605 44 340 0.0 0.9 0.00 1.03 0.58 93 1008.5
20260506151054 44 0 0.0 0.9 0.00 1.03 0.58 93 1008.5
20260506150554 44 0 0.0 0.0 0.00 1.03 0.58 93 1008.3
20260506150106 45 0 0.0 0.0 0.00 1.03 0.58 93 1008.3
20260506145555 45 0 0.0 0.0 0.00 1.03 0.58 94 1008.0
20260506145054 44 0 0.0 0.0 0.00 1.03 0.58 93 1008.0
20260506144602 45 0 0.0 0.0 0.00 1.03 0.58 93 1008.1
20260506144056 45 0 0.0 0.0 0.00 1.03 0.58 94 1008.0
20260506143557 45 0 0.0 0.0 0.00 1.03 0.58 94 1007.9
20260506143103 44 0 0.0 0.9 0.00 1.03 0.58 94 1007.8
20260506142553 45 0 0.0 0.9 0.01 1.03 0.58 94 1007.9
20260506142056 44 0 0.0 0.9 0.02 1.03 0.58 94 1007.9
20260506141559 45 330 0.0 0.0 0.02 1.03 0.58 94 1007.9
20260506141057 44 0 0.0 1.7 0.03 1.03 0.58 94 1007.9
20260506140555 44 0 0.0 1.7 0.03 1.03 0.58 94 1008.0
20260506140111 44 0 0.0 0.0 0.03 1.03 0.58 94 1007.9
20260506135554 44 0 0.0 0.0 0.04 1.03 0.58 94 1008.0
20260506135056 44 0 0.0 0.0 0.04 1.03 0.58 94 1008.0
20260506134555 44 0 0.0 0.0 0.05 1.03 0.58 94 1008.1
20260506134056 44 0 0.0 0.0 0.06 1.03 0.58 94 1008.1
20260506133557 43 0 0.0 0.0 0.07 1.03 0.58 94 1008.1
20260506133103 43 0 0.0 0.0 0.08 1.03 0.58 94 1008.2
20260506132554 43 0 0.0 0.0 0.07 1.02 0.57 94 1008.2
20260506132056 43 0 0.0 0.0 0.07 1.01 0.56 94 1008.2
20260506131601 43 0 0.0 0.0 0.08 1.01 0.56 94 1008.3
20260506131056 43 0 0.0 0.0 0.07 1.00 0.55 94 1008.5
20260506130557 43 0 0.0 0.0 0.08 1.00 0.55 94 1008.3
20260506130126 43 0 0.0 0.0 0.08 1.00 0.55 94 1008.2
20260506125602 43 0 0.0 0.0 0.07 0.99 0.54 94 1008.4
20260506125057 43 0 0.0 0.0 0.07 0.99 0.54 94 1008.3
20260506124556 43 0 0.0 0.0 0.07 0.98 0.52 94 1008.5
20260506124132 43 0 0.0 0.0 0.06 0.97 0.52 94 1008.3
20260506123558 43 0 0.0 0.0 0.05 0.96 0.51 93 1008.4
20260506123059 43 0 0.0 0.0 0.05 0.95 0.50 93 1008.3
20260506122555 43 0 0.0 0.0 0.05 0.95 0.50 93 1008.5
20260506122056 43 0 0.0 0.0 0.05 0.94 0.49 93 1008.2
20260506121603 43 0 0.0 0.0 0.04 0.93 0.48 93 1008.0
20260506121056 43 0 0.0 1.7 0.05 0.93 0.48 94 1008.0
20260506120556 43 0 0.0 1.7 0.05 0.92 0.47 94 1008.1
20260506120100 43 0 0.0 1.7 0.06 0.92 0.47 93 1008.0
20260506115557 43 0 0.0 0.0 0.07 0.92 0.47 93 1007.9
20260506115055 43 0 0.0 0.0 0.08 0.92 0.47 93 1008.0
20260506114557 43 0 0.0 0.0 0.08 0.91 0.46 93 1008.1
20260506114057 43 0 0.0 0.0 0.11 0.91 0.46 93 1008.2
20260506113555 43 0 0.0 0.0 0.13 0.91 0.46 93 1008.4
20260506113108 43 0 0.0 0.0 0.13 0.90 0.45 93 1008.6
20260506112555 43 0 0.0 0.0 0.13 0.90 0.45 93 1008.5
20260506112056 43 0 0.0 0.0 0.12 0.89 0.44 93 1008.3
20260506111557 43 0 0.0 0.0 0.13 0.89 0.44 93 1008.3
20260506111056 43 0 0.0 0.0 0.12 0.88 0.43 93 1008.5
20260506110557 43 0 0.0 0.9 0.12 0.87 0.42 93 1008.5
20260506105558 43 335 0.0 0.9 0.11 0.85 0.40 93 1008.9
20260506105056 43 0 0.0 0.9 0.11 0.84 0.39 93 1008.8
20260506104616 43 0 0.0 0.9 0.09 0.82 0.37 93 1009.0
20260506104054 43 0 0.0 0.9 0.07 0.80 0.35 93 1009.0
20260506103554 43 0 0.0 0.0 0.05 0.78 0.33 93 1009.0
20260506103055 43 0 0.0 0.0 0.04 0.77 0.32 93 1008.6
20260506102555 43 0 0.0 0.0 0.05 0.77 0.32 93 1008.4
20260506102057 43 0 0.0 0.0 0.05 0.77 0.32 93 1008.1
20260506101603 43 0 0.0 0.0 0.05 0.76 0.31 93 1008.1
20260506101057 43 0 0.0 0.0 0.05 0.76 0.31 93 1008.1
20260506100559 43 0 0.0 0.0 0.05 0.75 0.30 93 1008.2
20260506100054 43 0 0.0 0.9 0.04 0.74 0.29 93 1008.5
20260506095559 43 0 0.0 1.7 0.04 0.74 0.29 93 1008.1
20260506095055 43 0 0.0 1.7 0.04 0.73 0.28 93 1008.1
20260506094600 43 0 0.0 1.7 0.04 0.73 0.28 93 1007.7
20260506094054 43 0 0.0 0.0 0.05 0.73 0.28 93 1007.7
20260506093554 43 0 0.0 0.0 0.05 0.73 0.28 93 1007.9
20260506093106 43 0 0.0 0.0 0.06 0.73 0.28 93 1007.8
20260506092554 43 0 0.0 0.0 0.05 0.72 0.27 93 1008.3
20260506092055 43 0 0.0 0.9 0.06 0.72 0.27 93 1008.5
20260506091559 43 0 0.0 0.9 0.06 0.71 0.26 93 1008.5
20260506091055 43 0 0.0 0.9 0.07 0.71 0.26 93 1008.7
20260506090604 43 0 0.0 0.0 0.06 0.70 0.25 93 1009.0
20260506085557 43 0 0.0 0.0 0.07 0.70 0.25 93 1009.1
20260506085055 43 0 0.0 0.0 0.06 0.69 0.24 93 1009.2
20260506084556 43 0 0.0 0.0 0.07 0.69 0.24 93 1009.2
20260506084055 43 0 0.0 0.0 0.07 0.68 0.23 93 1009.1
20260506083555 43 0 0.0 0.0 0.07 0.68 0.23 93 1009.0
20260506083056 43 0 0.0 0.0 0.08 0.67 0.22 93 1009.0
20260506082558 43 0 0.0 0.0 0.10 0.67 0.22 93 1008.8
20260506082057 43 0 0.0 0.0 0.09 0.66 0.21 93 1008.9
20260506081556 43 0 0.0 0.0 0.08 0.65 0.20 93 1008.7
20260506081054 43 0 0.0 0.0 0.07 0.64 0.19 92 1008.6
20260506080555 43 0 0.0 0.0 0.08 0.64 0.19 92 1008.9
20260506073104 45 0 0.0 1.7 0.04 0.58 0.14 92 1009.0
20260506072556 46 83 0.0 0.9 0.02 0.57 0.12 92 1009.2
20260506072059 46 0 0.0 2.6 0.02 0.57 0.12 92 1008.9
20260506071611 46 0 0.0 2.6 0.03 0.57 0.12 92 1008.6
20260506071057 46 122 0.0 2.6 0.04 0.57 0.12 93 1008.5
20260506070555 46 0 0.0 0.0 0.03 0.56 0.11 92 1008.4
20260506062052 47 0 0.0 0.0 0.05 0.54 0.09 93 1008.8
20260506061555 47 0 0.0 0.0 0.05 0.54 0.09 93 1009.1
20260506061055 47 0 0.0 0.0 0.04 0.52 0.08 93 1009.0
20260506060557 47 0 0.0 0.0 0.03 0.52 0.07 92 1008.9
20260506051053 47 0 0.0 0.0 0.02 0.49 0.04 92 1009.9
20260506050552 47 0 0.0 0.0 0.02 0.49 0.04 92 1009.6
20260506045052 47 0 0.0 0.0 0.04 0.49 0.04 92 1009.8
20260506044601 47 0 0.0 0.0 0.05 0.49 0.04 92 1009.6
20260506044052 47 0 0.0 0.0 0.06 0.49 0.04 92 1010.2
20260506043553 47 0 0.0 0.0 0.07 0.49 0.04 92 1010.3
20260506043054 47 0 0.0 0.0 0.08 0.49 0.04 92 1010.1
20260506042555 47 0 0.0 0.0 0.08 0.49 0.04 92 1010.3
20260506042055 47 0 0.0 0.0 0.08 0.48 0.03 92 1010.2
20260506041604 47 0 0.0 0.0 0.09 0.48 0.03 92 1010.1
20260506041054 47 0 0.0 0.0 0.08 0.47 0.02 92 1009.9
20260506040552 47 0 0.0 0.0 0.09 0.47 0.02 92 1009.7
20260506040054 47 0 0.0 0.0 0.08 0.45 0.00 92 1009.6
20260506035552 47 0 0.0 0.0 0.09 0.45 0.45 92 1010.3
20260506035054 47 0 0.0 0.0 0.09 0.45 0.45 92 1010.1
20260506034556 47 0 0.0 0.0 0.09 0.44 0.44 91 1009.7
20260506034052 47 0 0.0 0.0 0.09 0.43 0.43 91 1009.7
20260506033556 47 0 0.0 0.0 0.09 0.42 0.42 91 1009.9
20260506033100 47 0 0.0 0.0 0.08 0.41 0.41 91 1010.1
20260506032557 47 0 0.0 0.0 0.09 0.41 0.41 91 1009.9
20260506032057 48 0 0.0 0.0 0.08 0.40 0.40 91 1009.8
20260506031558 47 0 0.0 0.0 0.08 0.39 0.39 91 1009.9
20260506031101 48 0 0.0 0.0 0.10 0.39 0.39 91 1010.1